DW9579 Weather Reports


Display with metric or nautical units.
time (UTC)temp
F
wind
direction
speed
MPH
gust
MPH
rain 1hr
in
rain 24hr
in
rain mn
in
humidity
%
barometer
mb
20260503190951 61 267 3.0 6.0 0.00 0.00 0.00 71 1012.9
20260503185921 61 270 5.0 7.0 0.00 0.00 0.00 71 1012.7
20260503184923 60 267 3.0 6.0 0.00 0.00 0.00 71 1012.7
20260503183924 60 265 4.0 7.0 0.00 0.00 0.00 73 1012.8
20260503182922 59 236 5.0 8.0 0.00 0.00 0.00 73 1012.7
20260503181921 59 298 6.0 10.0 0.00 0.00 0.00 72 1012.7
20260503180923 60 232 6.0 8.0 0.00 0.00 0.00 73 1012.8
20260503175932 59 211 5.0 8.0 0.00 0.00 0.00 74 1012.6
20260503174931 59 229 6.0 10.0 0.00 0.00 0.00 75 1012.6
20260503173929 58 213 6.0 9.0 0.00 0.00 0.00 75 1012.7
20260503172949 57 219 7.0 13.0 0.00 0.00 0.00 76 1012.7
20260503171951 56 222 8.0 13.0 0.00 0.00 0.00 77 1012.7
20260503170929 56 224 10.0 14.0 0.00 0.00 0.00 78 1012.7
20260503150929 56 240 3.0 8.0 0.00 0.00 0.00 76 1012.0
20260503130932 55 262 4.0 8.0 0.00 0.00 0.00 76 1010.6
20260503080943 55 253 9.0 13.0 0.00 0.00 0.00 77 1011.6
20260503072000 55 270 9.0 13.0 0.00 0.00 0.00 77 1011.6
20260503070939 55 271 8.0 13.0 0.00 0.00 0.00 77 1011.6
20260503054950 55 267 7.0 12.0 0.00 0.00 0.00 76 1011.7
20260503054008 55 266 8.0 12.0 0.00 0.00 0.00 77 1012.0
20260503053006 55 258 9.0 12.0 0.00 0.00 0.00 77 1012.1
20260503051945 55 260 9.0 15.0 0.00 0.00 0.00 77 1012.1
20260503050944 55 257 9.0 14.0 0.00 0.00 0.00 77 1012.1
20260503045959 55 260 7.0 14.0 0.00 0.00 0.00 77 1012.1
20260503044958 55 260 9.0 14.0 0.00 0.00 0.00 76 1012.0
20260503043957 55 277 8.0 15.0 0.00 0.00 0.00 77 1011.7
20260503042954 55 269 11.0 16.0 0.00 0.00 0.00 76 1011.7
20260503041939 55 245 8.0 14.0 0.00 0.00 0.00 77 1011.6
20260503040941 55 269 10.0 15.0 0.00 0.00 0.00 77 1011.6
20260503040013 56 274 8.0 17.0 0.00 0.00 0.00 77 1011.6
20260503034951 56 261 9.0 12.0 0.00 0.00 0.00 77 1011.6
20260503033949 55 286 9.0 15.0 0.00 0.00 0.00 77 1011.5
20260503032951 56 250 12.0 16.0 0.00 0.00 0.00 77 1011.5
20260503031949 56 264 10.0 16.0 0.00 0.00 0.00 77 1011.2
20260503030950 55 279 7.0 15.0 0.00 0.00 0.00 76 1011.0
20260503025942 56 273 9.0 15.0 0.00 0.00 0.00 77 1011.0
20260503025000 55 279 9.0 15.0 0.00 0.00 0.00 77 1011.0
20260503023944 56 275 9.0 17.0 0.00 0.00 0.00 77 1011.0
20260503022944 56 274 9.0 15.0 0.00 0.00 0.00 76 1011.0
20260503021942 56 288 10.0 16.0 0.00 0.00 0.00 76 1011.0
20260503021004 56 274 11.0 15.0 0.00 0.00 0.00 76 1011.1
20260503015950 56 281 10.0 17.0 0.00 0.00 0.00 76 1011.1
20260503014956 56 260 13.0 18.0 0.00 0.00 0.00 76 1011.1
20260503013954 57 261 11.0 18.0 0.00 0.00 0.00 76 1011.1
20260503012954 57 254 11.0 18.0 0.00 0.00 0.00 76 1011.1
20260503011956 57 264 14.0 17.0 0.00 0.00 0.00 76 1011.3
20260503011000 57 276 13.0 17.0 0.00 0.00 0.00 75 1011.3
20260503005959 57 263 11.0 17.0 0.00 0.00 0.00 75 1011.3
20260503004957 57 259 11.0 16.0 0.00 0.00 0.00 75 1011.3
20260503003956 57 276 11.0 17.0 0.00 0.00 0.00 75 1011.4
20260503002955 57 260 11.0 17.0 0.00 0.00 0.00 74 1011.4
20260503001957 58 271 12.0 16.0 0.00 0.00 0.00 74 1011.6
20260503000955 58 279 12.0 17.0 0.00 0.00 0.00 74 1011.6
20260502235945 58 246 11.0 15.0 0.00 0.00 0.00 74 1011.6
20260502234944 58 261 10.0 15.0 0.00 0.00 0.00 74 1011.6
20260502234003 58 261 11.0 16.0 0.00 0.00 0.00 74 1011.7
20260502232948 59 269 11.0 16.0 0.00 0.00 0.00 74 1011.7
20260502231951 59 257 9.0 15.0 0.00 0.00 0.00 73 1012.0
20260502230949 59 275 8.0 16.0 0.00 0.00 0.00 73 1012.1
20260502230019 59 271 8.0 16.0 0.00 0.00 0.00 73 1012.1
20260502224939 59 243 11.0 16.0 0.00 0.00 0.00 73 1012.4
20260502223941 59 244 11.0 16.0 0.00 0.00 0.00 73 1012.6
20260502223001 59 248 9.0 14.0 0.00 0.00 0.00 73 1012.8
20260502221942 59 257 11.0 16.0 0.00 0.00 0.00 74 1012.8
20260502221000 59 248 11.0 15.0 0.00 0.00 0.00 74 1013.0
20260502215954 59 241 10.0 15.0 0.00 0.00 0.00 74 1013.0
20260502215016 59 246 11.0 15.0 0.00 0.00 0.00 73 1013.1
20260502213953 59 246 14.0 18.0 0.00 0.00 0.00 73 1013.1
20260502212955 59 238 12.0 17.0 0.00 0.00 0.00 72 1013.1
20260502211954 59 240 13.0 17.0 0.00 0.00 0.00 72 1013.1
20260502210955 59 229 14.0 17.0 0.00 0.00 0.00 73 1013.4
20260502205944 59 241 13.0 17.0 0.00 0.00 0.00 73 1013.5
20260502204941 58 240 13.0 18.0 0.00 0.00 0.00 74 1013.5
20260502204019 59 240 11.0 17.0 0.00 0.00 0.00 74 1013.7
20260502202956 58 250 11.0 15.0 0.00 0.00 0.00 74 1013.7
20260502201941 58 251 11.0 18.0 0.00 0.00 0.00 75 1013.7
20260502201002 58 250 11.0 18.0 0.00 0.00 0.00 75 1013.8
20260502195951 57 237 11.0 17.0 0.00 0.00 0.00 75 1013.8
20260502194954 58 227 11.0 15.0 0.00 0.00 0.00 76 1013.7
20260502193956 57 246 12.0 16.0 0.00 0.00 0.00 76 1013.9
20260502192959 57 239 9.0 14.0 0.00 0.00 0.00 76 1013.9